Date String (YYYY-MM-DD hh:mm:ss) UTC,Instrument flags,absolute air pressure of the measurement (hPa),sample flow rate (lpm),inlet stack bypass flow (lpm),air temperature of the measurement (°C),ambient temperature measured by the external sensor (°C),aerosol sample conditioner tube jacket temperature (°C),OPC LED temperature (°C),internal box temperature (°C),relative humidity of the measurement (%),span deviation,mass concentration of particles derived from Lorenz-Mie calculation of OPC scattering (μg/m³),mass concentration of particles derived from Lorenz-Mie calculation of OPC scattering (μg/m³),mass concentration of particles derived from Lorenz-Mie calculation of OPC scattering (μg/m³)
DateTimeUTC,F1_M11,P_M11,Q1_M11,Q2_M11,T1_M11,T2_M11,T3_M11,T4_M11,T5_M11,U1_M11,ZSPAN_M11,X2_M11,X0_M11,X1_M11
2024-06-03 20:00:00,SystemResetWarning,0820.8,5.01,000.00,029.0,025.7,000.0,037.7,029.7,018.7,0000.0,0006.46,0034.40,0004.37
2024-06-03 20:01:00,SystemResetWarning,0820.7,5.02,000.00,028.9,026.0,000.0,037.7,029.8,017.4,0000.0,0006.48,0035.38,0004.33
2024-06-03 20:02:00,SystemResetWarning,0820.8,4.99,000.00,028.8,026.5,000.0,037.5,030.0,016.9,0000.0,0006.27,0033.02,0004.24
2024-06-03 20:03:00,SystemResetWarning,0820.8,5.00,000.00,028.9,027.0,000.0,037.5,030.3,017.0,0000.0,0006.07,0030.15,0004.13
2024-06-03 20:04:00,SystemResetWarning,0820.8,5.01,000.00,028.9,027.4,000.0,037.4,030.5,015.5,0000.0,0005.87,0027.28,0004.04
2024-06-03 20:05:00,SystemResetWarning,0820.8,4.99,000.00,029.0,027.8,000.0,037.4,030.7,015.5,0000.0,0005.57,0024.12,0003.95
2024-06-03 20:06:00,SystemResetWarning,0820.8,5.00,000.00,029.1,028.1,000.0,037.4,030.8,015.9,0000.0,0005.34,0021.60,0003.86
2024-06-03 20:07:00,SystemResetWarning,0820.8,5.00,000.00,029.1,028.3,000.0,037.4,030.9,015.8,0000.0,0005.15,0021.63,0003.78
2024-06-03 20:08:00,SystemResetWarning,0820.8,5.00,000.00,029.2,028.6,000.0,037.4,031.0,015.1,0000.0,0004.98,0021.66,0003.69
2024-06-03 20:09:00,SystemResetWarning,0820.8,5.01,000.00,029.3,028.7,000.0,037.4,031.1,014.3,0000.0,0004.78,0021.12,0003.62
2024-06-03 20:10:00,SystemResetWarning,0820.8,5.00,000.00,029.4,028.9,000.0,037.4,031.2,014.5,0000.0,0004.64,0018.00,0003.57
2024-06-03 20:11:00,SystemResetWarning,0820.7,4.99,000.00,029.5,029.1,000.0,037.5,031.3,014.5,0000.0,0004.53,0015.91,0003.52
2024-06-03 20:12:00,SystemResetWarning,0820.8,4.99,000.00,029.6,029.2,000.0,037.5,031.4,015.5,0000.0,0004.36,0016.10,0003.48
2024-06-03 20:13:00,SystemResetWarning,0820.8,5.00,000.00,029.6,029.2,000.0,037.6,031.4,015.1,0000.0,0004.31,0017.37,0003.44
2024-06-03 20:14:00,SystemResetWarning,0820.7,5.00,000.00,029.5,027.4,000.0,037.7,030.5,014.4,0000.0,0004.34,0017.10,0003.44
2024-06-03 20:15:00,SystemResetWarning,0820.6,5.00,000.00,029.0,025.8,000.0,037.7,029.7,014.3,0000.0,0004.36,0017.36,0003.42
2024-06-03 20:16:00,SystemResetWarning,0820.6,5.02,000.00,028.9,026.2,000.0,037.7,029.8,014.4,0000.0,0004.32,0016.95,0003.42
2024-06-03 20:17:00,SystemResetWarning,0820.6,5.00,000.00,028.9,026.7,000.0,037.5,030.1,014.7,0000.0,0004.34,0017.04,0003.41
2024-06-03 20:18:00,SystemResetWarning,0820.6,4.98,000.00,028.9,027.1,000.0,037.5,030.3,015.1,0000.0,0004.38,0016.62,0003.41
2024-06-03 20:19:00,SystemResetWarning,0820.6,5.01,000.00,029.0,027.5,000.0,037.4,030.5,015.9,0000.0,0004.35,0015.94,0003.39
2024-06-03 20:20:00,SystemResetWarning,0820.6,5.01,000.00,029.0,027.9,000.0,037.4,030.7,015.7,0000.0,0004.39,0016.60,0003.38
2024-06-03 20:21:00,SystemResetWarning,0820.7,5.00,000.00,029.1,028.1,000.0,037.4,030.8,016.1,0000.0,0004.40,0016.45,0003.37
2024-06-03 20:22:00,SystemResetWarning,0820.6,4.99,000.00,029.2,028.4,000.0,037.4,031.0,015.5,0000.0,0004.44,0016.71,0003.37
2024-06-03 20:23:00,SystemResetWarning,0820.6,5.00,000.00,029.3,028.6,000.0,037.4,031.1,014.5,0000.0,0004.44,0016.05,0003.36
2024-06-03 20:24:00,SystemResetWarning,0820.7,5.01,000.00,029.3,028.8,000.0,037.5,031.2,015.0,0000.0,0004.42,0013.64,0003.37
2024-06-03 20:25:00,SystemResetWarning,0820.6,5.00,000.00,029.4,029.0,000.0,037.5,031.3,015.1,0000.0,0004.41,0013.34,0003.37
2024-06-03 20:26:00,SystemResetWarning,0820.7,5.00,000.00,029.5,029.1,000.0,037.5,031.4,014.5,0000.0,0004.35,0013.31,0003.35
2024-06-03 20:27:00,SystemResetWarning,0820.6,5.00,000.00,029.6,029.2,000.0,037.6,031.5,014.5,0000.0,0004.34,0013.88,0003.34
2024-06-03 20:28:00,SystemResetWarning,0820.5,5.00,000.00,029.6,029.1,000.0,037.6,031.4,013.7,0000.0,0004.35,0015.85,0003.33
2024-06-03 20:29:00,SystemResetWarning,0820.7,4.98,000.00,029.4,027.3,000.0,037.7,030.5,013.9,0000.0,0004.29,0016.71,0003.31
2024-06-03 20:30:00,SystemResetWarning,0820.7,5.02,000.00,029.1,025.7,000.0,037.7,029.8,014.2,0000.0,0004.31,0016.53,0003.32
2024-06-03 20:31:00,SystemResetWarning,0820.7,5.00,000.00,028.9,026.2,000.0,037.7,029.9,014.7,0000.0,0004.29,0015.31,0003.33
2024-06-03 20:32:00,SystemResetWarning,0820.6,4.99,000.00,028.9,026.7,000.0,037.6,030.2,014.9,0000.0,0004.30,0014.53,0003.35
2024-06-03 20:33:00,SystemResetWarning,0820.7,5.01,000.00,028.9,027.1,000.0,037.5,030.4,014.7,0000.0,0004.27,0014.32,0003.35
2024-06-03 20:34:00,SystemResetWarning,0820.6,5.01,000.00,029.0,027.5,000.0,037.5,030.6,014.1,0000.0,0004.32,0014.80,0003.37
2024-06-03 20:35:00,SystemResetWarning,0820.6,4.99,000.00,029.0,027.9,000.0,037.4,030.7,014.8,0000.0,0004.33,0014.77,0003.37
2024-06-03 20:36:00,SystemResetWarning,0820.6,4.99,000.00,029.1,028.1,000.0,037.4,030.8,014.6,0000.0,0004.37,0015.79,0003.36
2024-06-03 20:37:00,SystemResetWarning,0820.5,4.99,000.00,029.2,028.4,000.0,037.4,031.0,014.1,0000.0,0004.36,0016.72,0003.36
2024-06-03 20:38:00,SystemResetWarning,0820.5,5.00,000.00,029.3,028.6,000.0,037.4,031.1,014.4,0000.0,0004.39,0015.84,0003.38
2024-06-03 20:39:00,SystemResetWarning,0820.5,5.00,000.00,029.3,028.8,000.0,037.5,031.2,014.5,0000.0,0004.41,0014.73,0003.39
2024-06-03 20:40:00,SystemResetWarning,0820.6,5.01,000.00,029.4,028.9,000.0,037.5,031.3,013.9,0000.0,0004.41,0013.86,0003.41
2024-06-03 20:41:00,SystemResetWarning,0820.5,5.00,000.00,029.5,029.1,000.0,037.5,031.4,014.2,0000.0,0004.42,0015.00,0003.40
2024-06-03 20:42:00,SystemResetWarning,0820.5,4.99,000.00,029.5,028.9,000.0,037.6,031.2,013.8,0000.0,0004.41,0015.95,0003.39
2024-06-03 20:43:00,SystemResetWarning,0820.8,4.99,000.00,029.3,026.8,000.0,037.7,030.2,014.1,0000.0,0004.42,0016.13,0003.38
2024-06-03 20:44:00,SystemResetWarning,0820.7,5.03,000.00,028.9,025.7,000.0,037.7,029.6,014.7,0000.0,0004.39,0016.55,0003.38
2024-06-03 20:45:00,SystemResetWarning,0820.8,4.99,000.00,028.8,026.2,000.0,037.6,029.8,014.7,0000.0,0004.30,0015.69,0003.37
2024-06-03 20:46:00,SystemResetWarning,0820.7,4.99,000.00,028.8,026.6,000.0,037.5,030.1,015.0,0000.0,0004.27,0015.67,0003.36
2024-06-03 20:47:00,SystemResetWarning,0820.6,5.01,000.00,028.8,027.0,000.0,037.4,030.3,015.0,0000.0,0004.31,0015.07,0003.36
2024-06-03 20:48:00,SystemResetWarning,0820.5,5.01,000.00,028.9,027.5,000.0,037.3,030.5,014.5,0000.0,0004.36,0014.16,0003.37
2024-06-03 20:49:00,SystemResetWarning,0820.7,5.00,000.00,029.0,027.8,000.0,037.3,030.7,014.9,0000.0,0004.35,0014.05,0003.36
2024-06-03 20:50:00,SystemResetWarning,0820.8,4.99,000.00,029.0,028.1,000.0,037.3,030.8,014.7,0000.0,0004.36,0014.17,0003.36
2024-06-03 20:51:00,SystemResetWarning,0820.7,4.99,000.00,029.1,028.4,000.0,037.3,030.9,015.4,0000.0,0004.39,0013.22,0003.36
2024-06-03 20:52:00,SystemResetWarning,0820.5,4.99,000.00,029.2,028.6,000.0,037.3,031.0,015.6,0000.0,0004.42,0012.78,0003.37
2024-06-03 20:53:00,SystemResetWarning,0820.5,5.01,000.00,029.3,028.8,000.0,037.4,031.1,015.5,0000.0,0004.43,0012.31,0003.38
2024-06-03 20:54:00,SystemResetWarning,0820.6,5.01,000.00,029.4,028.9,000.0,037.4,031.2,015.7,0000.0,0004.45,0012.98,0003.38
2024-06-03 20:55:00,SystemResetWarning,0820.9,5.00,000.00,029.5,029.1,000.0,037.4,031.3,015.3,0000.0,0004.51,0013.16,0003.37
2024-06-03 20:56:00,SystemResetWarning,0821.0,4.99,000.00,029.5,029.1,000.0,037.5,031.4,015.0,0000.0,0004.58,0013.58,0003.37
2024-06-03 20:57:00,SystemResetWarning,0820.4,4.99,000.00,029.4,027.8,000.0,037.6,030.7,014.8,0000.0,0004.64,0013.78,0003.38
2024-06-03 20:58:00,SystemResetWarning,0820.3,5.01,000.00,029.0,025.8,000.0,037.6,029.7,014.3,0000.0,0004.59,0013.27,0003.39
2024-06-03 20:59:00,SystemResetWarning,0820.3,5.01,000.00,028.8,026.0,000.0,037.6,029.7,014.8,0000.0,0004.55,0013.53,0003.39
